Time,TemperatureF,DewpointF,PressureIn,WindDirection,WindDirectionDegrees,WindSpeedMPH,WindSpeedGustMPH,Humidity,HourlyPrecipIn,Conditions,Clouds,dailyrainin,SoftwareType,DateUTC
2013-04-29 00:04:00,64.0,50.8,29.85,South,180,2.2,5.8,62,0.00,,---,0.00,VWS V14.01,2013-04-29 05:04:00,
2013-04-29 00:09:00,63.7,50.4,29.85,SSW,202,1.3,1.3,62,0.00,,---,0.00,VWS V14.01,2013-04-29 05:09:00,
2013-04-29 00:14:00,63.5,50.3,29.85,South,180,6.5,6.5,62,0.00,,---,0.00,VWS V14.01,2013-04-29 05:14:00,
2013-04-29 00:19:00,63.5,50.3,29.85,SSW,202,2.7,4.9,62,0.00,,---,0.00,VWS V14.01,2013-04-29 05:19:00,
2013-04-29 00:24:00,63.3,50.1,29.85,South,180,7.6,7.6,62,0.00,,---,0.00,VWS V14.01,2013-04-29 05:24:00,
2013-04-29 00:29:00,63.1,49.9,29.85,South,180,6.5,6.5,62,0.00,,---,0.00,VWS V14.01,2013-04-29 05:29:00,
2013-04-29 00:34:00,63.0,50.2,29.85,South,180,4.3,4.7,63,0.00,,---,0.00,VWS V14.01,2013-04-29 05:34:00,
2013-04-29 00:39:00,62.6,49.8,29.85,SSE,158,4.0,4.0,63,0.00,,---,0.00,VWS V14.01,2013-04-29 05:39:00,
2013-04-29 00:44:00,62.4,50.1,29.85,South,180,4.3,4.3,64,0.00,,---,0.00,VWS V14.01,2013-04-29 05:44:00,
2013-04-29 00:49:00,62.2,50.3,29.85,SW,225,3.1,6.3,65,0.00,,---,0.00,VWS V14.01,2013-04-29 05:49:00,
2013-04-29 00:54:00,61.9,50.0,29.85,South,180,1.1,7.2,65,0.00,,---,0.00,VWS V14.01,2013-04-29 05:54:00,
2013-04-29 01:00:00,61.5,50.1,29.85,South,180,2.9,3.4,66,0.00,,---,0.00,VWS V14.01,2013-04-29 06:00:00,
2013-04-29 01:05:00,61.2,49.7,29.85,South,180,2.9,3.6,66,0.00,,---,0.00,VWS V14.01,2013-04-29 06:05:00,
2013-04-29 01:11:00,61.0,50.0,29.85,South,180,6.3,6.3,67,0.00,,---,0.00,VWS V14.01,2013-04-29 06:11:00,
2013-04-29 01:17:00,60.8,50.2,29.85,SSE,158,4.0,4.3,68,0.00,,---,0.00,VWS V14.01,2013-04-29 06:17:00,
2013-04-29 01:22:00,60.4,49.8,29.85,South,180,2.5,3.6,68,0.00,,---,0.00,VWS V14.01,2013-04-29 06:22:00,
2013-04-29 01:27:00,60.4,49.8,29.85,South,180,2.0,4.3,68,0.00,,---,0.00,VWS V14.01,2013-04-29 06:27:00,
2013-04-29 01:32:00,60.6,50.0,29.85,SSW,202,6.5,6.5,68,0.00,,---,0.00,VWS V14.01,2013-04-29 06:32:00,
2013-04-29 01:38:00,61.0,49.5,29.85,SSE,158,5.8,6.0,66,0.00,,---,0.00,VWS V14.01,2013-04-29 06:38:00,
2013-04-29 01:43:00,61.3,49.9,29.85,South,180,4.3,9.0,66,0.00,,---,0.00,VWS V14.01,2013-04-29 06:43:00,
2013-04-29 01:48:00,61.3,49.9,29.85,SSE,158,6.3,6.3,66,0.00,,---,0.00,VWS V14.01,2013-04-29 06:48:00,
2013-04-29 01:53:00,61.5,50.1,29.85,South,180,3.6,4.0,66,0.00,,---,0.00,VWS V14.01,2013-04-29 06:53:00,
2013-04-29 01:58:00,61.7,50.2,29.85,SSW,202,4.3,8.1,66,0.00,,---,0.00,VWS V14.01,2013-04-29 06:58:00,
2013-04-29 02:04:00,62.1,50.6,29.85,SSW,202,4.5,8.5,66,0.00,,---,0.00,VWS V14.01,2013-04-29 07:04:00,
2013-04-29 02:09:00,62.1,50.6,29.85,SSW,202,3.1,3.8,66,0.00,,---,0.00,VWS V14.01,2013-04-29 07:09:00,
2013-04-29 02:14:00,62.1,50.6,29.85,South,180,5.8,5.8,66,0.00,,---,0.00,VWS V14.01,2013-04-29 07:14:00,
2013-04-29 02:19:00,62.1,51.0,29.85,SSW,202,3.6,4.7,67,0.00,,---,0.00,VWS V14.01,2013-04-29 07:19:00,
2013-04-29 02:24:00,61.9,51.2,29.85,SSW,202,3.1,9.4,68,0.00,,---,0.00,VWS V14.01,2013-04-29 07:24:00,
2013-04-29 02:29:00,61.7,51.4,29.85,SSW,202,4.7,4.7,69,0.00,,---,0.00,VWS V14.01,2013-04-29 07:29:00,
2013-04-29 02:35:00,61.3,51.1,29.85,South,180,2.0,2.2,69,0.00,,---,0.00,VWS V14.01,2013-04-29 07:35:00,
2013-04-29 02:40:00,61.0,51.5,29.85,South,180,2.5,3.4,71,0.00,,---,0.00,VWS V14.01,2013-04-29 07:40:00,
2013-04-29 02:45:00,60.6,51.6,29.85,SSE,158,3.6,6.0,72,0.00,,---,0.00,VWS V14.01,2013-04-29 07:45:00,
2013-04-29 02:50:00,60.4,51.8,29.85,South,180,3.8,4.0,73,0.00,,---,0.00,VWS V14.01,2013-04-29 07:50:00,
2013-04-29 02:55:00,60.3,51.6,29.85,South,180,3.8,4.3,73,0.00,,---,0.00,VWS V14.01,2013-04-29 07:55:00,
2013-04-29 03:00:00,60.1,51.8,29.85,SSW,202,2.9,4.0,74,0.00,,---,0.00,VWS V14.01,2013-04-29 08:00:00,
2013-04-29 03:06:00,59.9,52.3,29.85,South,180,2.5,3.4,76,0.00,,---,0.00,VWS V14.01,2013-04-29 08:06:00,
2013-04-29 03:11:00,59.7,52.5,29.85,SSE,158,3.1,3.6,77,0.00,,---,0.00,VWS V14.01,2013-04-29 08:11:00,
2013-04-29 03:16:00,59.4,52.5,29.85,WSW,248,4.0,5.4,78,0.00,,---,0.00,VWS V14.01,2013-04-29 08:16:00,
2013-04-29 03:21:00,59.2,52.7,29.85,SSW,202,1.1,2.5,79,0.00,,---,0.00,VWS V14.01,2013-04-29 08:21:00,
2013-04-29 03:26:00,59.0,52.8,29.85,South,180,3.4,4.3,80,0.00,,---,0.00,VWS V14.01,2013-04-29 08:26:00,
2013-04-29 03:31:00,58.8,53.0,29.85,South,180,3.6,3.6,81,0.00,,---,0.00,VWS V14.01,2013-04-29 08:31:00,
2013-04-29 03:36:00,58.8,53.3,29.85,South,180,3.1,3.8,82,0.00,,---,0.00,VWS V14.01,2013-04-29 08:36:00,
2013-04-29 03:42:00,58.6,53.5,29.85,SSW,202,2.2,2.5,83,0.00,,---,0.00,VWS V14.01,2013-04-29 08:42:00,
2013-04-29 03:47:00,58.6,53.5,29.85,SSW,202,3.8,3.8,83,0.00,,---,0.00,VWS V14.01,2013-04-29 08:47:00,
2013-04-29 03:52:00,58.5,53.7,29.85,South,180,1.6,3.4,84,0.00,,---,0.00,VWS V14.01,2013-04-29 08:52:00,
2013-04-29 03:57:00,58.5,54.0,29.85,SSW,202,3.1,4.3,85,0.00,,---,0.00,VWS V14.01,2013-04-29 08:57:00,
2013-04-29 04:03:00,58.5,54.3,29.85,South,180,2.7,4.3,86,0.00,,---,0.00,VWS V14.01,2013-04-29 09:03:00,
2013-04-29 04:08:00,58.5,54.6,29.85,South,180,2.9,7.2,87,0.00,,---,0.00,VWS V14.01,2013-04-29 09:08:00,
2013-04-29 04:13:00,58.5,54.9,29.82,South,180,3.4,3.4,88,0.00,,---,0.00,VWS V14.01,2013-04-29 09:13:00,
2013-04-29 04:18:00,58.5,55.2,29.82,South,180,2.5,4.0,89,0.00,,---,0.00,VWS V14.01,2013-04-29 09:18:00,
2013-04-29 04:24:00,58.5,55.2,29.82,SSW,202,2.0,4.3,89,0.00,,---,0.00,VWS V14.01,2013-04-29 09:24:00,
2013-04-29 04:29:00,58.5,55.5,29.85,SSW,202,2.5,3.1,90,0.00,,---,0.00,VWS V14.01,2013-04-29 09:29:00,
2013-04-29 04:34:00,58.3,55.4,29.85,South,180,0.0,4.9,90,0.00,,---,0.00,VWS V14.01,2013-04-29 09:34:00,
2013-04-29 04:40:00,58.1,55.2,29.85,South,180,2.7,2.7,90,0.00,,---,0.00,VWS V14.01,2013-04-29 09:40:00,
2013-04-29 04:45:00,57.9,55.0,29.85,SE,135,1.3,1.3,90,0.00,,---,0.00,VWS V14.01,2013-04-29 09:45:00,
2013-04-29 04:50:00,57.6,54.3,29.85,SSE,158,1.1,1.1,89,0.00,,---,0.00,VWS V14.01,2013-04-29 09:50:00,
2013-04-29 04:55:00,57.0,53.8,29.85,South,180,0.0,2.0,89,0.00,,---,0.00,VWS V14.01,2013-04-29 09:55:00,
2013-04-29 05:00:00,56.8,53.6,29.85,South,180,0.0,1.1,89,0.00,,---,0.00,VWS V14.01,2013-04-29 10:00:00,
2013-04-29 05:06:00,56.5,53.6,29.85,South,180,0.0,2.9,90,0.00,,---,0.00,VWS V14.01,2013-04-29 10:06:00,
2013-04-29 05:11:00,56.3,53.7,29.85,South,180,0.0,2.7,91,0.00,,---,0.00,VWS V14.01,2013-04-29 10:11:00,
2013-04-29 05:16:00,56.1,53.8,29.85,SE,135,0.0,1.3,92,0.00,,---,0.00,VWS V14.01,2013-04-29 10:16:00,
2013-04-29 05:21:00,56.1,53.8,29.85,SSE,158,1.3,1.3,92,0.00,,---,0.00,VWS V14.01,2013-04-29 10:21:00,
2013-04-29 05:27:00,55.9,54.0,29.82,SSE,158,2.2,2.9,93,0.00,,---,0.00,VWS V14.01,2013-04-29 10:27:00,
2013-04-29 05:32:00,56.1,54.4,29.82,SSE,158,3.1,3.8,94,0.00,,---,0.00,VWS V14.01,2013-04-29 10:32:00,
2013-04-29 05:37:00,56.1,54.4,29.82,South,180,1.3,4.0,94,0.00,,---,0.00,VWS V14.01,2013-04-29 10:37:00,
2013-04-29 05:42:00,56.1,54.4,29.85,South,180,0.0,2.5,94,0.00,,---,0.00,VWS V14.01,2013-04-29 10:42:00,
2013-04-29 05:48:00,56.1,54.4,29.85,South,180,0.0,1.3,94,0.00,,---,0.00,VWS V14.01,2013-04-29 10:48:00,
2013-04-29 05:53:00,56.1,54.4,29.85,South,180,1.6,2.9,94,0.00,,---,0.00,VWS V14.01,2013-04-29 10:53:00,
2013-04-29 05:58:00,56.3,54.9,29.85,South,180,0.0,2.5,95,0.00,,---,0.00,VWS V14.01,2013-04-29 10:58:00,
2013-04-29 06:04:00,56.3,54.9,29.85,South,180,2.2,2.2,95,0.00,,---,0.00,VWS V14.01,2013-04-29 11:04:00,
2013-04-29 06:09:00,56.3,54.9,29.85,SSE,158,1.6,2.9,95,0.00,,---,0.00,VWS V14.01,2013-04-29 11:09:00,
2013-04-29 06:14:00,56.3,54.9,29.85,SE,135,2.5,2.9,95,0.00,,---,0.00,VWS V14.01,2013-04-29 11:14:00,
2013-04-29 06:19:00,56.5,55.4,29.85,South,180,2.9,5.6,96,0.00,,---,0.00,VWS V14.01,2013-04-29 11:19:00,
2013-04-29 06:24:00,56.5,55.4,29.85,SSE,158,4.9,4.9,96,0.00,,---,0.00,VWS V14.01,2013-04-29 11:24:00,
2013-04-29 06:30:00,56.5,55.4,29.85,SSE,158,0.0,2.9,96,0.00,,---,0.00,VWS V14.01,2013-04-29 11:30:00,
2013-04-29 06:35:00,56.7,55.5,29.85,SSE,158,2.7,4.3,96,0.00,,---,0.00,VWS V14.01,2013-04-29 11:35:00,
2013-04-29 06:40:00,56.8,55.7,29.85,SSE,158,2.5,3.4,96,0.00,,---,0.00,VWS V14.01,2013-04-29 11:40:00,
2013-04-29 06:45:00,56.8,55.7,29.85,South,180,2.7,2.7,96,0.00,,---,0.00,VWS V14.01,2013-04-29 11:45:00,
2013-04-29 06:51:00,57.0,56.2,29.85,South,180,2.7,2.7,97,0.00,,---,0.00,VWS V14.01,2013-04-29 11:51:00,
2013-04-29 06:56:00,57.2,56.1,29.85,SSE,158,1.6,2.7,96,0.00,,---,0.00,VWS V14.01,2013-04-29 11:56:00,
2013-04-29 07:01:00,57.6,56.4,29.85,South,180,2.7,3.6,96,0.00,,---,0.00,VWS V14.01,2013-04-29 12:01:00,
2013-04-29 07:06:00,57.7,56.6,29.85,SSW,202,3.6,3.6,96,0.00,,---,0.00,VWS V14.01,2013-04-29 12:06:00,
2013-04-29 07:11:00,58.1,57.0,29.85,SSW,202,4.0,6.5,96,0.00,,---,0.00,VWS V14.01,2013-04-29 12:11:00,
2013-04-29 07:16:00,58.3,56.9,29.85,SSW,202,1.6,3.4,95,0.00,,---,0.00,VWS V14.01,2013-04-29 12:16:00,
2013-04-29 07:21:00,58.6,57.2,29.85,ESE,112,0.9,4.0,95,0.00,,---,0.00,VWS V14.01,2013-04-29 12:21:00,
2013-04-29 07:26:00,59.2,57.5,29.85,SSW,202,6.5,6.5,94,0.00,,---,0.00,VWS V14.01,2013-04-29 12:26:00,
2013-04-29 07:31:00,59.7,58.0,29.82,SSW,202,3.1,5.6,94,0.00,,---,0.00,VWS V14.01,2013-04-29 12:31:00,
2013-04-29 07:36:00,60.1,58.0,29.82,SSW,202,3.8,3.8,93,0.00,,---,0.00,VWS V14.01,2013-04-29 12:36:00,
2013-04-29 07:41:00,60.6,58.3,29.82,South,180,5.4,6.0,92,0.00,,---,0.00,VWS V14.01,2013-04-29 12:41:00,
2013-04-29 07:47:00,61.0,58.3,29.82,SSW,202,3.8,3.8,91,0.00,,---,0.00,VWS V14.01,2013-04-29 12:47:00,
2013-04-29 07:52:00,61.5,58.6,29.82,South,180,6.3,6.3,90,0.00,,---,0.00,VWS V14.01,2013-04-29 12:52:00,
2013-04-29 07:57:00,61.9,58.6,29.85,SSW,202,3.1,6.3,89,0.00,,---,0.00,VWS V14.01,2013-04-29 12:57:00,
2013-04-29 08:03:00,62.4,58.8,29.85,SSE,158,2.9,4.9,88,0.00,,---,0.00,VWS V14.01,2013-04-29 13:03:00,
2013-04-29 08:08:00,63.0,59.0,29.85,ESE,112,4.9,5.8,87,0.00,,---,0.00,VWS V14.01,2013-04-29 13:08:00,
2013-04-29 08:13:00,63.3,59.1,29.85,South,180,4.9,5.4,86,0.00,,---,0.00,VWS V14.01,2013-04-29 13:13:00,
2013-04-29 08:19:00,64.0,59.5,29.85,SSW,202,4.3,5.6,85,0.00,,---,0.00,VWS V14.01,2013-04-29 13:19:00,
2013-04-29 08:24:00,64.4,59.1,29.85,SW,225,6.5,7.2,83,0.00,,---,0.00,VWS V14.01,2013-04-29 13:24:00,
2013-04-29 08:29:00,64.8,59.5,29.85,South,180,3.1,7.4,83,0.00,,---,0.00,VWS V14.01,2013-04-29 13:29:00,
2013-04-29 08:34:00,66.0,60.0,29.85,SSW,202,4.3,4.3,81,0.00,,---,0.00,VWS V14.01,2013-04-29 13:34:00,
2013-04-29 08:39:00,66.2,59.9,29.85,SSW,202,9.8,9.8,80,0.00,,---,0.00,VWS V14.01,2013-04-29 13:39:00,
2013-04-29 08:44:00,66.7,60.4,29.82,SSW,202,1.1,3.1,80,0.00,,---,0.00,VWS V14.01,2013-04-29 13:44:00,
2013-04-29 08:50:00,68.2,61.1,29.82,WSW,248,1.6,2.5,78,0.00,,---,0.00,VWS V14.01,2013-04-29 13:50:00,
2013-04-29 08:55:00,68.9,60.3,29.82,SSW,202,1.1,4.0,74,0.00,,---,0.00,VWS V14.01,2013-04-29 13:55:00,
2013-04-29 09:00:00,70.0,61.3,29.82,West,270,2.5,3.4,74,0.00,,---,0.00,VWS V14.01,2013-04-29 14:00:00,
2013-04-29 09:06:00,70.5,59.9,29.82,WSW,248,3.8,8.5,69,0.00,,---,0.00,VWS V14.01,2013-04-29 14:06:00,
2013-04-29 09:12:00,71.4,61.1,29.85,WSW,248,2.0,2.2,70,0.00,,---,0.00,VWS V14.01,2013-04-29 14:12:00,
2013-04-29 09:18:00,71.8,59.4,29.85,SW,225,6.5,6.5,65,0.00,,---,0.00,VWS V14.01,2013-04-29 14:18:00,
2013-04-29 09:23:00,71.2,59.3,29.85,SW,225,4.3,7.2,66,0.00,,---,0.00,VWS V14.01,2013-04-29 14:23:00,
2013-04-29 09:28:00,72.1,59.7,29.85,WSW,248,4.3,6.0,65,0.00,,---,0.00,VWS V14.01,2013-04-29 14:28:00,
2013-04-29 09:33:00,72.7,59.4,29.85,SSW,202,3.8,3.8,63,0.00,,---,0.00,VWS V14.01,2013-04-29 14:33:00,
2013-04-29 09:39:00,72.3,59.0,29.85,SW,225,2.0,3.8,63,0.00,,---,0.00,VWS V14.01,2013-04-29 14:39:00,
2013-04-29 09:44:00,73.9,60.1,29.85,SSW,202,3.1,5.6,62,0.00,,---,0.00,VWS V14.01,2013-04-29 14:44:00,
2013-04-29 09:50:00,73.8,59.0,29.85,SSW,202,3.8,7.2,60,0.00,,---,0.00,VWS V14.01,2013-04-29 14:50:00,
2013-04-29 09:56:00,74.8,60.0,29.85,South,180,3.6,3.6,60,0.00,,---,0.00,VWS V14.01,2013-04-29 14:56:00,
2013-04-29 10:01:00,76.1,60.3,29.85,West,270,2.0,3.1,58,0.00,,---,0.00,VWS V14.01,2013-04-29 15:01:00,
2013-04-29 10:07:00,76.5,59.1,29.85,SW,225,6.9,6.9,55,0.00,,---,0.00,VWS V14.01,2013-04-29 15:07:00,
2013-04-29 10:12:00,77.0,58.6,29.82,WSW,248,2.7,4.3,53,0.00,,---,0.00,VWS V14.01,2013-04-29 15:12:00,
2013-04-29 10:17:00,77.4,57.8,29.82,South,180,2.2,4.0,51,0.00,,---,0.00,VWS V14.01,2013-04-29 15:17:00,
2013-04-29 10:22:00,78.1,58.0,29.82,SW,225,5.6,5.6,50,0.00,,---,0.00,VWS V14.01,2013-04-29 15:22:00,
2013-04-29 10:28:00,79.2,57.8,29.85,West,270,3.4,3.4,48,0.00,,---,0.00,VWS V14.01,2013-04-29 15:28:00,
2013-04-29 10:33:00,79.3,58.0,29.85,WSW,248,4.9,4.9,48,0.00,,---,0.00,VWS V14.01,2013-04-29 15:33:00,
2013-04-29 10:38:00,80.2,58.2,29.85,WSW,248,4.9,4.9,47,0.00,,---,0.00,VWS V14.01,2013-04-29 15:38:00,
2013-04-29 10:43:00,79.2,56.0,29.82,SSW,202,3.6,6.5,45,0.00,,---,0.00,VWS V14.01,2013-04-29 15:43:00,
2013-04-29 10:49:00,78.4,56.0,29.82,SSE,158,2.9,6.0,46,0.00,,---,0.00,VWS V14.01,2013-04-29 15:49:00,
2013-04-29 10:54:00,79.2,56.6,29.82,South,180,3.8,8.5,46,0.00,,---,0.00,VWS V14.01,2013-04-29 15:54:00,
2013-04-29 10:59:00,80.8,57.5,29.85,West,270,5.8,5.8,45,0.00,,---,0.00,VWS V14.01,2013-04-29 15:59:00,
2013-04-29 11:04:00,80.1,57.4,29.85,SSW,202,1.6,6.3,46,0.00,,---,0.00,VWS V14.01,2013-04-29 16:04:00,
2013-04-29 11:10:00,79.7,57.1,29.85,SW,225,5.4,5.4,46,0.00,,---,0.00,VWS V14.01,2013-04-29 16:10:00,
2013-04-29 11:15:00,80.6,57.3,29.82,WSW,248,3.6,7.2,45,0.00,,---,0.00,VWS V14.01,2013-04-29 16:15:00,
2013-04-29 11:20:00,81.9,58.5,29.82,SW,225,1.1,4.3,45,0.00,,---,0.00,VWS V14.01,2013-04-29 16:20:00,
2013-04-29 11:25:00,82.6,58.5,29.82,South,180,3.6,3.6,44,0.00,,---,0.00,VWS V14.01,2013-04-29 16:25:00,
2013-04-29 11:31:00,82.6,57.8,29.85,SSW,202,2.7,4.3,43,0.00,,---,0.00,VWS V14.01,2013-04-29 16:31:00,
2013-04-29 11:36:00,82.2,57.5,29.85,South,180,4.9,5.4,43,0.00,,---,0.00,VWS V14.01,2013-04-29 16:36:00,
2013-04-29 11:42:00,82.8,57.3,29.85,WSW,248,4.0,4.3,42,0.00,,---,0.00,VWS V14.01,2013-04-29 16:42:00,
2013-04-29 11:47:00,84.0,57.8,29.85,SSW,202,3.4,4.0,41,0.00,,---,0.00,VWS V14.01,2013-04-29 16:47:00,
2013-04-29 11:52:00,83.3,57.8,29.85,SW,225,3.6,5.4,42,0.00,,---,0.00,VWS V14.01,2013-04-29 16:52:00,
2013-04-29 11:57:00,84.7,57.8,29.85,SW,225,2.7,6.7,40,0.00,,---,0.00,VWS V14.01,2013-04-29 16:57:00,
2013-04-29 12:02:00,85.5,58.4,29.85,SSW,202,3.4,4.3,40,0.00,,---,0.00,VWS V14.01,2013-04-29 17:02:00,
2013-04-29 12:07:00,84.4,57.5,29.85,SSW,202,2.9,4.3,40,0.00,,---,0.00,VWS V14.01,2013-04-29 17:07:00,
2013-04-29 12:13:00,84.0,57.8,29.85,WNW,292,3.6,5.6,41,0.00,,---,0.00,VWS V14.01,2013-04-29 17:13:00,
2013-04-29 12:18:00,83.8,57.0,29.85,SE,135,2.9,3.6,40,0.00,,---,0.00,VWS V14.01,2013-04-29 17:18:00,
2013-04-29 12:23:00,84.6,57.6,29.85,SSW,202,4.3,5.6,40,0.00,,---,0.00,VWS V14.01,2013-04-29 17:23:00,
2013-04-29 12:29:00,85.6,58.6,29.85,West,270,4.0,4.0,40,0.00,,---,0.00,VWS V14.01,2013-04-29 17:29:00,
2013-04-29 12:34:00,84.4,56.7,29.85,South,180,3.1,7.2,39,0.00,,---,0.00,VWS V14.01,2013-04-29 17:34:00,
2013-04-29 12:39:00,84.9,57.2,29.85,West,270,3.4,6.0,39,0.00,,---,0.00,VWS V14.01,2013-04-29 17:39:00,
2013-04-29 12:44:00,85.3,57.5,29.82,West,270,5.6,7.8,39,0.00,,---,0.00,VWS V14.01,2013-04-29 17:44:00,
2013-04-29 12:49:00,86.0,57.5,29.82,SSW,202,2.5,3.4,38,0.00,,---,0.00,VWS V14.01,2013-04-29 17:49:00,
2013-04-29 12:55:00,86.0,56.7,29.82,WSW,248,3.6,7.4,37,0.00,,---,0.00,VWS V14.01,2013-04-29 17:55:00,
2013-04-29 13:00:00,86.0,56.0,29.79,SSW,202,2.0,2.9,36,0.00,,---,0.00,VWS V14.01,2013-04-29 18:00:00,
2013-04-29 13:06:00,86.0,56.0,29.79,South,180,4.9,4.9,36,0.00,,---,0.00,VWS V14.01,2013-04-29 18:06:00,
2013-04-29 13:11:00,86.0,56.0,29.79,SSW,202,8.1,12.1,36,0.00,,---,0.00,VWS V14.01,2013-04-29 18:11:00,
2013-04-29 13:16:00,86.2,56.1,29.79,SSW,202,3.6,9.6,36,0.00,,---,0.00,VWS V14.01,2013-04-29 18:16:00,
2013-04-29 13:22:00,85.5,56.2,29.79,South,180,4.3,7.4,37,0.00,,---,0.00,VWS V14.01,2013-04-29 18:22:00,
2013-04-29 13:27:00,85.5,55.5,29.79,South,180,3.8,10.1,36,0.00,,---,0.00,VWS V14.01,2013-04-29 18:27:00,
2013-04-29 13:32:00,86.0,56.0,29.79,South,180,8.7,8.7,36,0.00,,---,0.00,VWS V14.01,2013-04-29 18:32:00,
2013-04-29 13:37:00,85.5,56.2,29.79,South,180,3.8,13.6,37,0.00,,---,0.00,VWS V14.01,2013-04-29 18:37:00,
2013-04-29 13:42:00,85.6,56.4,29.76,South,180,2.9,5.4,37,0.00,,---,0.00,VWS V14.01,2013-04-29 18:42:00,
2013-04-29 13:47:00,86.0,56.0,29.76,East,90,5.6,6.7,36,0.00,,---,0.00,VWS V14.01,2013-04-29 18:47:00,
2013-04-29 13:52:00,86.4,55.5,29.76,SSW,202,4.3,8.5,35,0.00,,---,0.00,VWS V14.01,2013-04-29 18:52:00,
2013-04-29 13:58:00,86.7,56.6,29.79,SW,225,2.0,7.6,36,0.00,,---,0.00,VWS V14.01,2013-04-29 18:58:00,
2013-04-29 14:03:00,87.8,56.8,29.79,South,180,3.6,5.8,35,0.00,,---,0.00,VWS V14.01,2013-04-29 19:03:00,
2013-04-29 14:08:00,88.5,57.4,29.79,SSW,202,3.4,3.8,35,0.00,,---,0.00,VWS V14.01,2013-04-29 19:08:00,
2013-04-29 14:13:00,87.6,55.8,29.79,South,180,6.5,6.5,34,0.00,,---,0.00,VWS V14.01,2013-04-29 19:13:00,
2013-04-29 14:19:00,88.5,56.6,29.79,SW,225,6.5,6.5,34,0.00,,---,0.00,VWS V14.01,2013-04-29 19:19:00,
2013-04-29 14:24:00,87.6,56.6,29.79,SSW,202,5.6,8.1,35,0.00,,---,0.00,VWS V14.01,2013-04-29 19:24:00,
2013-04-29 14:29:00,87.1,56.1,29.79,SSW,202,5.8,9.2,35,0.00,,---,0.00,VWS V14.01,2013-04-29 19:29:00,
2013-04-29 14:34:00,87.1,56.1,29.79,SSW,202,9.8,9.8,35,0.00,,---,0.00,VWS V14.01,2013-04-29 19:34:00,
2013-04-29 14:40:00,87.3,56.3,29.79,SSW,202,3.1,5.8,35,0.00,,---,0.00,VWS V14.01,2013-04-29 19:40:00,
2013-04-29 14:46:00,87.4,56.5,29.79,South,180,1.1,4.5,35,0.00,,---,0.00,VWS V14.01,2013-04-29 19:46:00,
2013-04-29 14:51:00,88.0,56.9,29.79,SSW,202,3.8,3.8,35,0.00,,---,0.00,VWS V14.01,2013-04-29 19:51:00,
2013-04-29 14:57:00,87.1,56.9,29.79,SSW,202,6.0,6.0,36,0.00,,---,0.00,VWS V14.01,2013-04-29 19:57:00,
2013-04-29 15:02:00,87.1,56.1,29.76,SSW,202,9.8,12.3,35,0.00,,---,0.00,VWS V14.01,2013-04-29 20:02:00,
2013-04-29 15:08:00,87.4,56.5,29.76,West,270,5.4,13.0,35,0.00,,---,0.00,VWS V14.01,2013-04-29 20:08:00,
2013-04-29 15:13:00,87.6,57.4,29.76,South,180,6.0,6.5,36,0.00,,---,0.00,VWS V14.01,2013-04-29 20:13:00,
2013-04-29 15:18:00,88.2,57.9,29.76,South,180,7.8,7.8,36,0.00,,---,0.00,VWS V14.01,2013-04-29 20:18:00,
2013-04-29 15:23:00,87.1,56.9,29.76,SSW,202,10.1,10.1,36,0.00,,---,0.00,VWS V14.01,2013-04-29 20:23:00,
2013-04-29 15:29:00,88.2,58.6,29.76,SSW,202,5.8,5.8,37,0.00,,---,0.00,VWS V14.01,2013-04-29 20:29:00,
2013-04-29 15:34:00,87.8,56.8,29.76,SSW,202,5.8,6.5,35,0.00,,---,0.00,VWS V14.01,2013-04-29 20:34:00,
2013-04-29 15:39:00,87.8,56.8,29.76,SSW,202,10.7,10.7,35,0.00,,---,0.00,VWS V14.01,2013-04-29 20:39:00,
2013-04-29 15:44:00,87.6,56.6,29.74,SE,135,10.1,10.1,35,0.00,,---,0.00,VWS V14.01,2013-04-29 20:44:00,
2013-04-29 15:50:00,88.0,56.9,29.74,ESE,112,4.0,10.7,35,0.00,,---,0.00,VWS V14.01,2013-04-29 20:50:00,
2013-04-29 15:55:00,87.4,55.7,29.74,South,180,6.3,13.4,34,0.00,,---,0.00,VWS V14.01,2013-04-29 20:55:00,
2013-04-29 16:00:00,87.8,56.0,29.74,SW,225,3.8,15.2,34,0.00,,---,0.00,VWS V14.01,2013-04-29 21:00:00,
2013-04-29 16:06:00,88.3,56.4,29.74,SSW,202,3.4,6.3,34,0.00,,---,0.00,VWS V14.01,2013-04-29 21:06:00,
2013-04-29 16:11:00,89.6,57.5,29.74,SSW,202,2.9,4.9,34,0.00,,---,0.00,VWS V14.01,2013-04-29 21:11:00,
2013-04-29 16:16:00,89.1,56.2,29.74,SSE,158,3.6,5.4,33,0.00,,---,0.00,VWS V14.01,2013-04-29 21:16:00,
2013-04-29 16:21:00,89.4,56.6,29.74,SSW,202,11.0,11.0,33,0.00,,---,0.00,VWS V14.01,2013-04-29 21:21:00,
2013-04-29 16:26:00,89.8,56.0,29.74,SSW,202,11.2,11.2,32,0.00,,---,0.00,VWS V14.01,2013-04-29 21:26:00,
2013-04-29 16:32:00,88.7,55.1,29.74,South,180,7.4,10.5,32,0.00,,---,0.00,VWS V14.01,2013-04-29 21:32:00,
2013-04-29 16:37:00,88.3,54.8,29.74,South,180,9.8,9.8,32,0.00,,---,0.00,VWS V14.01,2013-04-29 21:37:00,
2013-04-29 16:42:00,87.8,54.3,29.74,SSW,202,6.5,9.4,32,0.00,,---,0.00,VWS V14.01,2013-04-29 21:42:00,
2013-04-29 16:47:00,88.7,55.9,29.74,SSE,158,10.1,10.1,33,0.00,,---,0.00,VWS V14.01,2013-04-29 21:47:00,
2013-04-29 16:53:00,88.7,55.1,29.74,South,180,5.4,5.4,32,0.00,,---,0.00,VWS V14.01,2013-04-29 21:53:00,
2013-04-29 16:58:00,89.1,55.4,29.71,South,180,8.1,8.7,32,0.00,,---,0.00,VWS V14.01,2013-04-29 21:58:00,
2013-04-29 17:03:00,88.2,53.7,29.71,SSW,202,8.7,11.0,31,0.00,,---,0.00,VWS V14.01,2013-04-29 22:03:00,
2013-04-29 17:08:00,88.0,54.5,29.71,SSW,202,12.3,13.0,32,0.00,,---,0.00,VWS V14.01,2013-04-29 22:08:00,
2013-04-29 17:14:00,88.3,55.6,29.74,SSW,202,5.8,7.2,33,0.00,,---,0.00,VWS V14.01,2013-04-29 22:14:00,
2013-04-29 17:19:00,88.0,55.3,29.74,South,180,5.4,9.6,33,0.00,,---,0.00,VWS V14.01,2013-04-29 22:19:00,
2013-04-29 17:24:00,88.2,56.3,29.74,South,180,3.4,10.1,34,0.00,,---,0.00,VWS V14.01,2013-04-29 22:24:00,
2013-04-29 17:29:00,88.0,55.3,29.74,SSE,158,7.2,10.1,33,0.00,,---,0.00,VWS V14.01,2013-04-29 22:29:00,
2013-04-29 17:35:00,87.6,55.8,29.74,South,180,6.3,13.0,34,0.00,,---,0.00,VWS V14.01,2013-04-29 22:35:00,
2013-04-29 17:40:00,87.6,54.2,29.74,South,180,8.1,13.0,32,0.00,,---,0.00,VWS V14.01,2013-04-29 22:40:00,
2013-04-29 17:45:00,87.3,53.8,29.74,South,180,9.6,12.8,32,0.00,,---,0.00,VWS V14.01,2013-04-29 22:45:00,
2013-04-29 17:50:00,87.3,53.8,29.74,South,180,6.5,9.6,32,0.00,,---,0.00,VWS V14.01,2013-04-29 22:50:00,
2013-04-29 17:55:00,87.3,53.8,29.74,South,180,8.5,10.7,32,0.00,,---,0.00,VWS V14.01,2013-04-29 22:55:00,
2013-04-29 18:00:00,87.1,53.7,29.74,SSE,158,0.9,9.8,32,0.00,,---,0.00,VWS V14.01,2013-04-29 23:00:00,
2013-04-29 18:06:00,86.7,53.4,29.74,SSW,202,8.5,8.7,32,0.00,,---,0.00,VWS V14.01,2013-04-29 23:06:00,
2013-04-29 18:11:00,86.5,53.2,29.74,South,180,8.7,8.7,32,0.00,,---,0.00,VWS V14.01,2013-04-29 23:11:00,
2013-04-29 18:16:00,86.7,53.4,29.71,South,180,4.3,9.8,32,0.00,,---,0.00,VWS V14.01,2013-04-29 23:16:00,
2013-04-29 18:21:00,86.4,53.0,29.71,SSE,158,5.8,9.2,32,0.00,,---,0.00,VWS V14.01,2013-04-29 23:21:00,
2013-04-29 18:26:00,86.0,53.6,29.71,WSW,248,4.9,5.8,33,0.00,,---,0.00,VWS V14.01,2013-04-29 23:26:00,
2013-04-29 18:31:00,85.8,55.0,29.71,SSE,158,3.4,3.4,35,0.00,,---,0.00,VWS V14.01,2013-04-29 23:31:00,
2013-04-29 18:36:00,85.5,55.5,29.71,SSE,158,8.5,12.5,36,0.00,,---,0.00,VWS V14.01,2013-04-29 23:36:00,
2013-04-29 18:41:00,84.7,55.6,29.71,SSW,202,10.3,10.3,37,0.00,,---,0.00,VWS V14.01,2013-04-29 23:41:00,
2013-04-29 18:46:00,84.0,55.0,29.74,SSE,158,4.9,10.3,37,0.00,,---,0.00,VWS V14.01,2013-04-29 23:46:00,
2013-04-29 18:51:00,83.7,55.4,29.74,South,180,4.3,8.5,38,0.00,,---,0.00,VWS V14.01,2013-04-29 23:51:00,
2013-04-29 18:56:00,83.5,55.2,29.74,South,180,4.9,11.0,38,0.00,,---,0.00,VWS V14.01,2013-04-29 23:56:00,
2013-04-29 19:01:00,83.1,54.9,29.71,SSW,202,7.4,14.5,38,0.00,,---,0.00,VWS V14.01,2013-04-30 00:01:00,
2013-04-29 19:06:00,82.6,54.4,29.71,SSW,202,6.0,16.1,38,0.00,,---,0.00,VWS V14.01,2013-04-30 00:06:00,
2013-04-29 19:11:00,82.2,54.8,29.71,South,180,12.5,12.5,39,0.00,,---,0.00,VWS V14.01,2013-04-30 00:11:00,
2013-04-29 19:16:00,81.7,54.3,29.68,South,180,5.6,12.8,39,0.00,,---,0.00,VWS V14.01,2013-04-30 00:16:00,
2013-04-29 19:21:00,81.1,53.9,29.68,SSW,202,7.4,14.3,39,0.00,,---,0.00,VWS V14.01,2013-04-30 00:21:00,
2013-04-29 19:26:00,81.0,53.7,29.68,SW,225,6.3,7.8,39,0.00,,---,0.00,VWS V14.01,2013-04-30 00:26:00,
2013-04-29 19:31:00,80.6,53.4,29.68,South,180,7.4,10.1,39,0.00,,---,0.00,VWS V14.01,2013-04-30 00:31:00,
2013-04-29 19:36:00,79.9,52.7,29.68,WSW,248,6.3,7.8,39,0.00,,---,0.00,VWS V14.01,2013-04-30 00:36:00,
2013-04-29 19:41:00,79.3,53.0,29.68,South,180,5.6,8.1,40,0.00,,---,0.00,VWS V14.01,2013-04-30 00:41:00,
2013-04-29 19:46:00,79.0,52.6,29.68,South,180,5.6,5.8,40,0.00,,---,0.00,VWS V14.01,2013-04-30 00:46:00,